Regional Weather Roundup
Issued by NWS

Home | Current Version | Previous Version | Text Only | Print | Product List | Glossary Off
Versions: 1 2 3 4 5 6 7 8 9 10 11 12 13 14 15 16 17 18 19 20 21 22 23 24 25 26 27 28 29 30 31 32 33 34 35 36 37 38 39 40 41 42 43 44 45 46 47 48 49 50

000
ASUS43 KOAX 201110
RWRNE

WEATHER ROUNDUP FOR NEBRASKA
NATIONAL WEATHER SERVICE OMAHA NE
500 AM CST SAT DEC 20 2014

NOTES: SATELLITE DATA IS BEING USED TO AUGMENT CLOUD COVER ABOVE
       12000 FEET.
       "FAIR" INDICATES FEW OR NO CLOUDS BELOW 12,000 FEET WITH NO
       SIGNIFICANT WEATHER AND/OR OBSTRUCTIONS TO VISIBILITY.

  * THESE STATIONS DO NOT REPORT WEATHER SUCH AS RAIN...SNOW OR FOG.

NEZ001>004-019>022-054>056-201200-
NEBRASKA PANHANDLE

CITY           SKY/WX    TMP DP  RH WIND       PRES   REMARKS
SCOTTSBLUFF    PTCLDY    14   9  80 CALM      29.97S
ALLIANCE       PTCLDY     8   5  87 W6        29.95F WCI  -2
CHADRON        PTCLDY    17  13  84 W6        29.94F WCI   9
KIMBALL        PTCLDY    22  18  82 W7        29.96F WCI  14
SIDNEY         PTCLDY    15  11  83 W5        29.98F WCI   8
$$

NEZ057>060-069>072-079>082-201200-
SOUTHWEST NEBRASKA

CITY           SKY/WX    TMP DP  RH WIND       PRES   REMARKS
NORTH PLATTE   CLEAR     17  15  92 NW5       30.01F FOG     WCI  10
IMPERIAL       CLEAR     20  15  81 W6        30.01F WCI  12
LEXINGTON      CLEAR     21  19  92 W8        30.02S FOG     WCI  12
MCCOOK         CLEAR     22  20  92 SW6       30.03F WCI  14
OGALLALA       PTCLDY    14  13  93 W3        30.00S
$$

NEZ005>010-023>029-035>040-094-201200-
NORTH CENTRAL NEBRASKA

CITY           SKY/WX    TMP DP  RH WIND       PRES   REMARKS
VALENTINE      CLEAR     15  12  88 SW6       29.97S WCI   6
AINSWORTH      CLEAR     20  15  82 SW3       29.96F
BROKEN BOW     CLEAR     17  14  88 CALM      29.99F
O`NEILL        FOG      N/A N/A N/A CALM      30.00F VSB 1/4
THEDFORD       CLEAR     19  17  90 W3        29.99S
$$

NEZ041-046>049-061>064-073>077-083>087-201200-
SOUTH CENTRAL NEBRASKA

CITY           SKY/WX    TMP DP  RH WIND       PRES   REMARKS
GRAND ISLAND   FOG       29  28  96 CALM      30.04S VSB 1/4
AURORA         FOG       31  31 100 CALM      30.03F VSB 3/4
HASTINGS       FOG       26  25  96 CALM      30.03S VSB 1/4
HEBRON         FOG       31  30  96 SW5       30.07F VSB 1/2 WCI  26
HOLDREGE       CLEAR     21  19  92 W3        30.02S
KEARNEY *      CLEAR     18  18 100 CALM      30.02F
YORK           CLOUDY    32  32 100 CALM      30.05S FOG
$$

NEZ011>018-030>034-042>045-201200-
NORTHEAST NEBRASKA

CITY           SKY/WX    TMP DP  RH WIND       PRES   REMARKS
NORFOLK        CLOUDY    33  31  92 S8        30.04F FOG     WCI  26
ALBION         FOG       32  30  93 SE6       30.03F VSB 1   WCI  26
BLAIR          CLOUDY    32  31  95 SE7       30.08F FOG     WCI  26
COLUMBUS *     CLOUDY    32  28  86 S5        30.07F WCI  27
FREMONT        CLOUDY    32  32  99 SE7       30.09F FOG     WCI  26
TEKAMAH        CLOUDY    32  30  92 SE10      30.10F FOG     WCI  24
WAYNE          CLOUDY    32  32  98 S7        30.06F FOG     WCI  26
$$

NEZ050>053-065>068-078-088>093-201200-
SOUTHEAST NEBRASKA

CITY           SKY/WX    TMP DP  RH WIND       PRES   REMARKS
LINCOLN        CLOUDY    33  32  96 SE3       30.09F FOG
OMAHA EPPLEY   FRZ DRZL  32  31  96 S12       30.12F FOG     WCI  23
BEATRICE       CLOUDY    32  32  99 SW8       30.08S FOG     WCI  25
FALLS CITY     CLOUDY    32  29  88 SE10      30.12F WCI  24
NEBRASKA CITY  CLOUDY    32  32 100 S9        30.11F FOG     WCI  24
PLATTSMOUTH    CLOUDY    31  29  94 SE9       30.10F FOG     WCI  23
$$

NEZ044-045-051>053-067-201200-
OMAHA AREA

CITY           SKY/WX    TMP DP  RH WIND       PRES   REMARKS
OMAHA EPPLEY   FRZ DRZL  32  31  96 S12       30.12F FOG     WCI  23
BLAIR          CLOUDY    32  31  95 SE7       30.08F FOG     WCI  26
FREMONT        CLOUDY    32  32  99 SE7       30.09F FOG     WCI  26
MILLARD        CLOUDY    32  31  96 SE7       30.11F FOG     WCI  26
OFFUTT AFB     MOCLDY    32  32 100 SE8       30.10F FOG     WCI  25
PLATTSMOUTH    CLOUDY    31  29  94 SE9       30.10F FOG     WCI  23
WAHOO          CLOUDY    32  30  93 SE8       30.08F FOG     WCI  25
$$



USA.gov is the U.S. government's official web portal to all federal, state and local government web resources and services.